Regional Weather Roundup
Issued by NWS

Home | Current Version | Previous Version | Graphics & Text | Print | Product List | Glossary Off
Versions: 1 2 3 4 5 6 7 8 9 10 11 12 13 14 15 16 17 18 19 20 21 22 23 24 25 26 27 28 29 30 31 32 33 34 35 36 37 38 39 40 41 42 43 44 45 46 47 48 49 50

000
ASUS43 KMKX 312011
RWRWI

WISCONSIN REGIONAL WEATHER ROUNDUP
NATIONAL WEATHER SERVICE MILWAUKEE/SULLIVAN WI
300 PM CDT FRI JUL 31 2015

NOTE: "FAIR" INDICATES FEW OR NO CLOUDS BELOW 12,000 FEET WITH NO
SIGNIFICANT WEATHER AND/OR OBSTRUCTIONS TO VISIBILITY.

WIZ001-002-006>008-014>016-023>028-312100-
NORTHWEST WISCONSIN

CITY           SKY/WX    TMP DP  RH WIND       PRES   REMARKS
SUPERIOR ARPT  MOSUNNY   79  54  41 W21G28    29.93F HX  80
ASHLAND        PTSUNNY   74  54  49 W13G18    29.94S
HAYWARD        MOSUNNY   77  51  40 W8G17     29.97F
SIREN          MOSUNNY   79  48  33 W18G30    29.99F
CUMBERLAND     MOSUNNY   73  50  43 W15G24    30.00F
RICE LAKE      MOSUNNY   73  52  47 NW10G17   30.01F
CHETEK         PTSUNNY   76  53  44 W8G20     30.00S
LADYSMITH      MOSUNNY   78  51  39 W21G26    29.99F
EAU CLAIRE     MOSUNNY   81  52  36 NW18G26   29.99F HX  80
MENOMONIE      MOSUNNY   81  48  31 W17G24    30.01F HX  80
NEW RICHMOND   MOSUNNY   78  51  38 NW10G20   30.02F
OSCEOLA        MOSUNNY   79  52  38 W14       30.04F
$$

WIZ003>005-009-010-017-018-312100-
NORTH CENTRAL WISCONSIN

CITY           SKY/WX    TMP DP  RH WIND       PRES   REMARKS
MANITOWISH WTR MOSUNNY   74  52  46 NW15G23   29.94S
ARBOR VITAE    MOSUNNY   77  53  43 NW17G25   29.94S
WOODRUFF       MOSUNNY   77  53  43 NW17G25   29.94S
RHINELANDER    MOSUNNY   76  48  37 NW10G25   29.94F
EAGLE RIVER    MOSUNNY   72  48  42 W17G23    29.93S
LAND O LAKES   MOSUNNY   73  48  40 NW14G26   29.94S
PHILLIPS       MOSUNNY   74  52  45 W9G21     29.96S
TOMAHAWK       MOSUNNY   73  49  42 W9G22     29.95F
MEDFORD        MOSUNNY   75  52  45 W15       29.98S
MERRILL        NOT AVBL
$$

WIZ029-030-035-036-043>047-312100-
CENTRAL WISCONSIN

CITY           SKY/WX    TMP DP  RH WIND       PRES   REMARKS
WAUSAU         PTSUNNY   78  50  37 NW17G24   29.93F
MOSINEE        PTSUNNY   77  50  38 NW16G28   29.96F
MARSHFIELD     MOSUNNY   79  50  36 NW18G28   29.98S
STEVENS POINT  MOSUNNY   76  51  41 NW9G22    29.96S
WAUPACA        MOSUNNY   82  48  30 W15       29.93F HX  80
WAUTOMA        MOSUNNY   83  47  28 NW18G25   29.95F HX  81
WISC RAPIDS    MOSUNNY   82  48  30 NW16G26   29.98F HX  81
CAMP DOUGLAS   SUNNY     81  52  37 NW20G28   29.98F HX  80
$$

WIZ011>013-019>022-031-037>040-048>050-312100-
NORTHEAST WISCONSIN

CITY           SKY/WX    TMP DP  RH WIND       PRES   REMARKS
ANTIGO         PTSUNNY   77  51  39 W16G25    29.93F
SHAWANO        PTSUNNY   83  51  32 W13G23    29.90F HX  81
OCONTO         PTSUNNY   81  51  35 W16G23    29.86S HX  80
STURGEON BAY   MOSUNNY   81  52  36 NW14G20   29.89S HX  80
GREEN BAY      MOSUNNY   81  53  37 W17       29.89F HX  80
MANITOWOC      MOSUNNY   82  49  31 MISG      29.90R HX  81
APPLETON       PTSUNNY   77  46  33 NW16G23   29.93F
CLINTONVILLE   PTSUNNY   81  45  28 NW13G22   29.91S
OSHKOSH        MOSUNNY   79  51  37 NW12G25   29.92F
$$

WIZ032>034-041-042-053>061-312100-
SOUTHWEST WISCONSIN

CITY           SKY/WX    TMP DP  RH WIND       PRES   REMARKS
LA CROSSE      SUNNY     83  50  31 NW20      30.00F HX  81
SPARTA         SUNNY     82  45  27 NW13G21   30.01S HX  80
VIROQUA        SUNNY     78  52  39 NW14      30.03F
BOSCOBEL       SUNNY     86  50  28 NW13G25   30.01F HX  84
PRAIRIE DU CHI SUNNY     84  45  25 W16G25    30.01F HX  81
PLATTEVILLE    SUNNY     82  53  37 NW10G23   30.02F HX  81
$$

WIZ056-057-062-063-064-067-068-312100-
SOUTH CENTRAL WISCONSIN

CITY           SKY/WX    TMP DP  RH WIND       PRES   REMARKS
REEDSBURG      SUNNY     81  49  33 NW16G24   29.98F HX  80
BARABOO/DELLS  MOSUNNY   82  43  25 W20       29.98S HX  80
LONE ROCK      SUNNY     83  49  30 NW17G25   29.99F HX  81
MINERAL POINT  SUNNY     81  43  26 NW17G28   30.01F
MADISON        MOSUNNY   81  50  33 NW12G22   29.97F HX  80
MIDDLETON      SUNNY     82  44  25 NW14G23   29.99S HX  80
WATERTOWN      MOSUNNY   81  53  38 NW12G23   29.96S HX  80
MONROE         SUNNY     81  46  30 NW25G33   30.00S HX  80
JANESVILLE     MOSUNNY   84  45  24 NW23G30   29.97F HX  82
$$

WIZ051-052-058>065-066-070>072-312100-
SOUTHEAST WISCONSIN

CITY           SKY/WX    TMP DP  RH WIND       PRES   REMARKS
MILWAUKEE      MOSUNNY   83  47  28 NW17G30   29.94R HX  81
WAUKESHA       MOSUNNY   81  46  30 NW23G30   29.97S HX  80
MILWAUKEE/TIMM MOSUNNY   81  45  28 W16G28    29.94F
RACINE         SUNNY     83  46  27 NW18G28   29.95F HX  81
BURLINGTON     SUNNY     82  44  26 NW17G29   29.96F HX  80
KENOSHA        SUNNY     83  50  31 W16G28    29.95S HX  81
FOND DU LAC    MOSUNNY   80  50  34 NW17G25   29.94S HX  80
SHEBOYGAN      PTSUNNY   81  51  35 W17G28    29.91F HX  80
WEST BEND      PTSUNNY   79  45  29 W17G28    29.94S
JUNEAU         MOSUNNY   79  51  38 NW13G24   29.96S
$$

LSZ147-162-312100-
LAKE SUPERIOR

STATION/POSITION TIME  TEMP    WIND        PRES    WAVE
                       AIR SEA DIR/SP/G            HT/PER
                 (UTC) (F)     (DEG/KT/KT) (MB)    (FT/S)
W MID LAKE BUOY  1950   58 54  260/ 12/ 16 1011.7F   2/ 4
DEVILS ISLAND    2000   61     260/ 13/ 16 1013.2R
PORT WING        1940   72     250/  7/  9 1013.5F
SAXON HARBOR     1900   71                 1013.2F
$$

LMZ867-665-643>646-312100-
LAKE MICHIGAN

STATION/POSITION TIME  TEMP    WIND        PRES    WAVE
                       AIR SEA DIR/SP/G            HT/PER
                 (UTC) (F)     (DEG/KT/KT) (MB)    (FT/S)
CHAMBERS ISLAND  1900   76     310/  6/ 10 1010.5F
S GREEN BAY BUOY 1900   73 71  320/ 10/ 14 1013.2S
N MID LAKE BUOY  1950   71 69  270/ 10/ 12 1009.8F   1/ 4
NORTHPORT PIER   1900   76     290/  7/ 15 1010.5S
SISTER BAY       1944   79     330/ 17/ 19   N/A
ALGOMA LAKESHORE 1912          310/ 11/ 17   N/A
KEWAUNEE LAKESHO 1900   79     290/ 12/ 19 1011.3F
SHEBOYGAN LAKESH 2000   79     290/ 20/ 26 1012.7F
PORT WASHINGTON  1900   82     290/  9/ 20 1013.5
ATWATER BUOY     2000   76 65  300/ 16/ 23 1014.8F
MILWAUKEE LAKESH 1900   80     290/ 17/ 23   N/A
KENOSHA   LAKESH 2000   82     270/ 18/ 27 1012.9F
$$

TC  - TEMPERATURE IN CELSIUS
VSB - VISIBILITY IN STATUTE MILES
WCI - WIND CHILL INDEX
HX  - HEAT INDEX




USA.gov is the U.S. government's official web portal to all federal, state and local government web resources and services.